Regional Weather Roundup
Issued by NWS Midland/Odessa, TX

Skip options and go directly to product.
Home | Oldest Version | Previous Version | Current Version | All | Text Only | Save Text | Print | Product List | Glossary On

Skip product version selection by date and time.   
943
ASUS44 KMAF 010202
RWRMAF
MIDLAND AREA WEATHER ROUNDUP
NATIONAL WEATHER SERVICE MIDLAND TX
900 PM CDT FRI OCT 31 2014

...IN SOUTHWEST TEXAS AND SOUTHEAST NEW MEXICO...

CITY           SKY/WX    TMP DP  RH WIND       PRES   REMARKS
ALPINE         CLEAR     58  35  43 CALM      30.38S
ANDREWS        FAIR      54  33  46 E7        30.34S
ARTESIA        NOT AVBL
BIG SPRING     CLEAR     54  32  43 NE7       30.37R
CARLSBAD       CLEAR     50  38  63 S5        30.29R
DRYDEN           N/A     61  32  33 NE6       30.27R
FORT STOCKTON  PTCLDY    60  31  33 E6        30.30R
GUAD PASS      NOT AVBL
HOBBS          PTCLDY    54  32  43 E8        30.34S
MARFA          CLEAR     54  37  54 E5        30.35R
MIDLAND AIRPK  PTCLDY    59  34  38 E8        30.34S
MIDLAND INTL   PTCLDY    60  33  36 E14       30.33R
ODESSA         PTCLDY    58  31  35 E10       30.33S
PECOS          PTCLDY    59  32  36 E7        30.28R
PRESIDIO       FAIR      69  39  32 NE20G26   30.21R
SEMINOLE       PTCLDY    52  34  50 E7        30.35R
SNYDER         CLEAR     51  35  54 E7        30.36S
WINK           PTCLDY    61  30  31 E9        30.28S
$$
...OTHER STATIONS IN TEXAS...

CITY           SKY/WX    TMP DP  RH WIND       PRES   REMARKS
ABILENE        CLEAR     55  33  43 NE7       30.35S
AMARILLO       CLEAR     47  31  53 SE13      30.35S
AUSTIN         CLEAR     54  43  66 N8        30.29R
BROWNSVILLE    CLEAR     68  60  75 NW6       30.20R
CORPUS CHRISTI PTCLDY    67  55  65 N7        30.22R
DALLAS FTW     CLEAR     55  37  50 NE9       30.34R
DEL RIO        CLEAR     70  41  34 E6        30.25R
EL PASO        PTCLDY    66  38  35 E17       30.20R
HOUSTON INT    CLEAR     63  45  51 N9        30.25R
LUBBOCK        CLEAR     47  32  56 E7        30.36R
SAN ANGELO     CLEAR     58  31  35 NE7       30.33R
SAN ANTONIO    PTCLDY    66  39  37 N9        30.27R
WACO           CLEAR     53  40  61 N8        30.32R
WICHITA FALLS  NOT AVBL
$$
...OTHER LOCATIONS IN NEW MEXICO...

CITY           SKY/WX    TMP DP  RH WIND       PRES   REMARKS
ALAMAGORDO     NOT AVBL
ALBUQUERQUE    MOCLDY    62  32  32 E12       30.24R
CANNON AFB     PTCLDY    50  33  50 S13       30.34R
CLOVIS         PTCLDY    50  30  46 S12       30.36S
HOLLOMAN AFB   PTCLDY    63  39  41 S14       30.21R
ROSWELL        CLEAR     51  37  58 S7        30.31R
RUIDOSO        PTCLDY    45  32  61 SE13      30.39S WCI  38
SANTA FE       CLEAR     52  29  41 SE17      30.29R
TRUTH OR CONSE MOCLDY    63  39  41 S7        30.23R
TUCUMCARI      CLEAR     54  30  40 S9        30.28S
$$

USA.gov is the U.S. government's official web portal to all federal, state and local government web resources and services.